AirNav   Everest Fuels
 
 1210 users online  

IN27 Culp Airport
Francesville, Indiana, USA

GOING TO FRANCESVILLE?


FAA INFORMATION EFFECTIVE 21 MAY 2020

Location

FAA Identifier: IN27
Lat/Long: 40-59-59.2800N 086-54-47.3400W
40-59.988000N 086-54.789000W
40.9998000,-86.9131500
(estimated)
Elevation: 700 ft. / 213 m (estimated)
From city: 2 miles NW of FRANCESVILLE, IN
Time zone: UTC -4 (UTC -5 during Standard Time)
Zip code: 47946

Airport Operations

Airport use: Private use. Permission required prior to landing
Activation date: 03/2018
Control tower: no
ARTCC: CHICAGO CENTER
FSS: KANKAKEE FLIGHT SERVICE STATION
Attendance: 
Wind indicator: yes
Segmented circle: no

Airport Communications

WX AWOS-3P at RZL (13 nm W): 119.175 (219-866-7167)
WX AWOS-3P at MCX (19 nm S): 124.05 (574-583-0531)

Nearby radio navigation aids

VOR radial/distance  VOR name  Freq  Var
OXIr212/22.7KNOX VOR/DME115.6000E
BVTr014/27.5BOILER VORTAC115.1001E

Airport Services

Runway Information

Runway 9/27

Dimensions: 1150 x 68 ft. / 351 x 21 m
Surface: turf, in fair condition
RUNWAY 9  RUNWAY 27
Traffic pattern: leftleft

Airport Ownership and Management from official FAA records

Ownership: Privately-owned
Owner: GARY CULP
3863 S. 1600 W.
FRANCESVILLE, IN 47946
Phone 219-869-1463
Manager: GARY CULP
3863 S. 1600 W.
FRANCESVILLE, IN 47946
Phone 219-869-1463

Airport Operational Statistics

Aircraft based on the field: 1
Single engine airplanes: 1
    

Additional Remarks

FOR CD CTC INDIANAPOLIS ARTCC AT 317-247-2411.

Instrument Procedures

There are no published instrument procedures at IN27.

Some nearby airports with instrument procedures:

KRZL - Jasper County Airport (13 nm W)
KRWN - Arens Field Airport (15 nm E)
KMCX - White County Airport (19 nm S)
KOXI - Starke County Airport (23 nm NE)
50I - Kentland Municipal Airport (28 nm SW)
 
Loc | Ops | Rwys | IFR | FBO | Links
Com | Nav | Svcs | Stats | Notes
Aerial photo
No photo
 
Airport distance calculator
Flying to Culp Airport? Find the distance to fly.

From to IN27

Sunrise and sunset
Times for 01-Jun-2020
 Local
(UTC-4)
 Zulu
(UTC)
Morning civil twilight05:4509:45
Sunrise06:1810:18
Sunset21:1301:13
Evening civil twilight21:4601:46

Current date and time
Zulu (UTC)  01-Jun-2020 21:36:41
Local (UTC-4)  01-Jun-2020 17:36:41
 
METAR
KRZL 
13nm W 
012115Z AUTO 19012G17KT 10SM CLR 22/06 A3015 RMK AO2
KMCX 
19nm S 
012115Z AUTO 21013KT 10SM SCT120 22/05 A3016 RMK AO2 T02220053
KOXI 
23nm NE 
012115Z AUTO 20011G19KT 10SM CLR 24/05 A3014 RMK AO1
TAF
KLAF 
35nm S 
011720Z 0118/0218 19009KT P6SM BKN100 FM020300 19009KT P6SM SCT200 FM020600 21010KT P6SM FEW250 WS020/23040KT FM021400 23012G20KT P6SM FEW250
KGUS 
41nm SE 
011900Z 0119/0301 21009KT 9999 SCT120 QNH3004INS BECMG 0214/0215 25020G25KT 9999 FEW120 QNH2992INS BECMG 0223/0224 23009KT 9999 FEW130 510022 QNH2992INS TX29/0219Z TN15/0209Z
KGYY 
43nm NW 
011721Z 0118/0218 19012G19KT P6SM -SHRA SCT045 OVC070 FM012100 20016G26KT P6SM BKN100 FM020200 20014G20KT P6SM SCT050 WS015/24045KT FM021400 24012G18KT P6SM SCT250
NOTAMs
Click for the latest NOTAMs
NOTAMs are issued by the DoD/FAA and will open in a separate window not controlled by AirNav.

 

 
 

Would you like to see your business listed on this page?

 If your business provides an interesting product or service to pilots, flight crews, aircraft, or users of the Culp Airport, you should consider listing it here.  To start the listing process, click on the button below
 
Add a business
 

Other Pages about Culp Airport

Update a link
 
Copyright © AirNav, LLC. All rights reserved. Privacy Policy  Contact